Location: Cactus School
(34.5700°N, 118.0931°W)
Time: 08:38:42
(UTC-07:00)

S-56A Canister/Altair - Pass Details

Date: 20 April 2024
Orbit: 638 x 2488 km, 38.9° (Epoch: 29 May)

Event Time Altitude Azimuth Distance (km) Brightness Sun altitude
Rises 19:44:47 0° 279° (W) 3,424 13.4 -4.0°
Reaches altitude 10° 19:46:58 10° 283° (WNW) 2,650 12.2 -4.4°
Maximum altitude 19:53:19 64° 5° (N) 1,336 8.8 -5.6°
Drops below altitude 10° 20:03:04 10° 86° (E) 3,979 10.6 -7.5°
Enters shadow 20:04:53 - 88° (E) 4,565 10.9 -7.9°
Sets 20:07:04 0° 90° (E) 5,265 - -8.3°
